Location: Bishausen
(51.6334°N, 9.9631°E)
Time: 10:37:05
(UTC+00:00)

Cosmos 2278 - Pass Details

Date: 23 May 2024
Orbit: 837 x 853 km, 71.1° (Epoch: 23 June)

Event Time Altitude Azimuth Distance (km) Brightness Sun altitude
Rises 00:32:43 0° 329° (NNW) 3,431 7.5 -15.8°
Reaches altitude 10° 00:35:10 10° 329° (NNW) 2,493 6.7 -15.7°
Maximum altitude 00:40:55 89° 240° (WSW) 861 3.7 -15.4°
Drops below altitude 10° 00:46:38 10° 153° (SSE) 2,479 5.8 -15.1°
Enters shadow 00:46:59 - 153° (SSE) 2,612 5.9 -15.1°
